"Pseudo-MPEC" for TF26E51

Created 2026 May 12 12:35:11 UT using Find_Orb

Click here for an explanation of pseudo-MPECs

 
 Astrometry: 
     TF26E51* C2026 05 11.26983315 10 57.676+08 11 49.45   ~5B6o 18.90GVNEOCPU74
     TF26E51  C2026 05 11.27076815 10 58.368+08 11 52.82   ~5B6o 18.90GVNEOCPU74

Station data:
(U74) JPL SynTrack Robotic Telescope 2, Auberry  (N37.070341 W119.412800)
   US/California.  Observers N. Saini, C. Zhai, R. Trahan, M. Zhan, M. Shao.
   0.36-m f/2.2 Schmidt.

Orbital elements:  TF26E51
   Perihelion 2026 Jun 4.631972 +/- 36.2 TT = 15:10:02.4 (JD 2461196.131972)
Epoch 2026 May 11.0 TT = JDT 2461171.5   Earth MOID: 0.0209   Ma: 0.0454
M 349.381928587 +/- 19              (J2000 ecliptic)             AutoNEOCP
n   0.431068662 +/- 0.309           Peri.   86.983570 +/- 120
a   1.735555133 +/- 0.829           Node   170.243032 +/- 70
e   0.41474360 +/- 0.249            Incl.    1.188747 +/- 6
P   2.286/835.118d         H 24.69  G  0.15   U 12.0  SR
q 1.015744748 +/- 0.157    Q 2.455365517 +/- 41.7
From 2 observations 2026 May 11 (80.8 sec); mean residual 0".00
Residuals in arcseconds: 
260511 U74  .00   .00     260511 U74  .00   .00     

Ephemerides (geocentric):
Date (UTC) HH   RA             Dec           delta  r     elong  mag " sig PA
---- --------  ------------   ------------  ------ ------ -----  --- --------
2026 05 12 13  15 29 23.957   +09 32 37.38  .04096 1.0466 152.1 19.1  38d  90
2026 05 12 14  15 30 03.552   +09 35 20.52  .04085 1.0465 152.1 19.1  39d  90
2026 05 12 15  15 30 43.364   +09 38 04.11  .04075 1.0464 152.0 19.0  40d  90
2026 05 12 16  15 31 23.392   +09 40 48.15  .04064 1.0463 151.9 19.0  40d  90
2026 05 12 17  15 32 03.639   +09 43 32.63  .04054 1.0462 151.9 19.0  41d  90
2026 05 12 18  15 32 44.105   +09 46 17.55  .04043 1.0461 151.8 19.0  42d  89
2026 05 12 19  15 33 24.790   +09 49 02.91  .04033 1.0459 151.7 19.0  42d  89
2026 05 12 20  15 34 05.697   +09 51 48.71  .04022 1.0458 151.6 19.0  42d  89
2026 05 12 21  15 34 46.826   +09 54 34.93  .04012 1.0457 151.6 19.0  42d  89
2026 05 12 22  15 35 28.177   +09 57 21.58  .04001 1.0456 151.5 19.0  43d  89
2026 05 12 23  15 36 09.753   +10 00 08.65  .03991 1.0455 151.4 19.0  43d  89
2026 05 13 00  15 36 51.554   +10 02 56.14  .03981 1.0454 151.3 19.0  43d  89
2026 05 13 01  15 37 33.581   +10 05 44.04  .03971 1.0453 151.3 19.0  43d  89
2026 05 13 02  15 38 15.835   +10 08 32.36  .03960 1.0452 151.2 19.0  44d  89
2026 05 13 03  15 38 58.316   +10 11 21.07  .03950 1.0451 151.1 19.0  44d  89
2026 05 13 04  15 39 41.027   +10 14 10.19  .03940 1.0450 151.0 19.0  44d  89
2026 05 13 05  15 40 23.967   +10 16 59.70  .03930 1.0449 150.9 19.0  44d  89
2026 05 13 06  15 41 07.139   +10 19 49.60  .03920 1.0448 150.8 19.0  45d  89
2026 05 13 07  15 41 50.541   +10 22 39.88  .03910 1.0447 150.8 19.0  45d  89
2026 05 13 08  15 42 34.177   +10 25 30.55  .03900 1.0446 150.7 19.0  45d  89
2026 05 13 09  15 43 18.046   +10 28 21.59  .03890 1.0445 150.6 19.0  45d  89
2026 05 13 10  15 44 02.149   +10 31 12.99  .03880 1.0444 150.5 19.0  46d  89
2026 05 13 11  15 44 46.488   +10 34 04.76  .03870 1.0443 150.4 19.0  46d  89
2026 05 13 12  15 45 31.063   +10 36 56.89  .03861 1.0441 150.3 19.0  46d  89
2026 05 13 13  15 46 15.875   +10 39 49.37  .03851 1.0440 150.3 19.0  47d  89
2026 05 13 14  15 47 00.925   +10 42 42.19  .03841 1.0439 150.2 19.0  47d  89
2026 05 13 15  15 47 46.214   +10 45 35.35  .03832 1.0438 150.1 19.0  47d  87
2026 05 13 16  15 48 31.742   +10 48 28.84  .03822 1.0437 150.0 19.0  47d  87
2026 05 13 17  15 49 17.511   +10 51 22.66  .03812 1.0436 149.9 19.0  47d  87
2026 05 13 18  15 50 03.521   +10 54 16.79  .03803 1.0435 149.8 19.0  47d  87
2026 05 13 19  15 50 49.773   +10 57 11.24  .03793 1.0434 149.7 19.0  48d  87
2026 05 13 20  15 51 36.268   +11 00 05.99  .03784 1.0433 149.6 19.0  48d  87
2026 05 13 21  15 52 23.006   +11 03 01.03  .03775 1.0432 149.5 18.9  48d  87
2026 05 13 22  15 53 09.989   +11 05 56.37  .03765 1.0431 149.4 18.9  48d  87
2026 05 13 23  15 53 57.217   +11 08 51.99  .03756 1.0430 149.3 18.9  49d  87
2026 05 14 00  15 54 44.691   +11 11 47.88  .03747 1.0429 149.2 18.9  49d  87
2026 05 14 01  15 55 32.411   +11 14 44.03  .03738 1.0428 149.1 18.9  49d  87
2026 05 14 02  15 56 20.378   +11 17 40.45  .03729 1.0427 149.0 18.9  49d  87
2026 05 14 03  15 57 08.594   +11 20 37.11  .03720 1.0426 148.9 18.9  49d  87
2026 05 14 04  15 57 57.058   +11 23 34.01  .03711 1.0425 148.8 18.9  50d  87
2026 05 14 05  15 58 45.771   +11 26 31.14  .03702 1.0424 148.7 18.9  50d  87
2026 05 14 06  15 59 34.733   +11 29 28.50  .03693 1.0423 148.6 18.9  50d  86
2026 05 14 07  16 00 23.946   +11 32 26.07  .03684 1.0422 148.5 18.9  50d  86
2026 05 14 08  16 01 13.411   +11 35 23.84  .03675 1.0421 148.4 18.9  50d  86
2026 05 14 09  16 02 03.126   +11 38 21.80  .03666 1.0420 148.3 18.9  50d  86
2026 05 14 10  16 02 53.094   +11 41 19.95  .03657 1.0419 148.2 18.9  51d  86
2026 05 14 11  16 03 43.314   +11 44 18.28  .03649 1.0418 148.1 18.9  51d  86
2026 05 14 12  16 04 33.787   +11 47 16.77  .03640 1.0417 148.0 18.9  51d  86